Weather History for Taba International, Egypt

Change the Weather History Date:

Wednesday, February 13, 2013

  Actual Average Record
Temperature  
Mean Temperature 52 °F -  
Max Temperature 68 °F - - ()
Min Temperature 35 °F - - ()
Degree Days  
Heating Degree Days 14    
Growing Degree Days 2 (Base 50)    
Moisture  
Dew Point 29 °F    
Average Humidity 46    
Maximum Humidity 87    
Minimum Humidity 20    
Precipitation  
Precipitation 0.00 in - - ()
Sea Level Pressure  
Sea Level Pressure 30.07 in    
Wind  
Wind Speed 1 mph ()    
Max Wind Speed 9 mph    
Max Gust Speed -    
T = Trace of Precipitation, MM = Missing Value Source: Averaged Metar Reports

Daily Weather History Graph

Daily Weather History Graph

Search for Another Location

Airport:

Trip Planner

Search our weather history database for the weather conditions in past years. The results will help you decide how hot, cold, wet, or windy it might be!

Date:

Astronomy

Feb. 13, 2013 Rise Set
Actual Time 6:22 AM EET 5:28 PM EET
Civil Twilight 5:57 AM EET 5:52 PM EET
Nautical Twilight 5:29 AM EET 6:21 PM EET
Astronomical Twilight 5:01 AM EET 6:48 PM EET
Moon 7:59 AM EET (2/13) 8:48 PM EET (2/13)
Length of Visible Light 11h 55m
Length of Day
11h 06m
Waxing Crescent, 11% of the Moon is Illuminated
Feb 13
Waxing Crescent
Feb 17
First Quarter
Feb 25
Full
Mar 4
Last Quarter
Mar 11
New

Hourly Weather History & Observations

Time (EET) Temp. Dew Point Humidity Pressure Visibility Wind Dir Wind Speed Gust Speed Precip Events Conditions
12:00 AM 48.2 °F 35.6 °F 62% 30.09 in - Calm Calm - N/A   Clear
1:00 AM 44.6 °F 35.6 °F 71% 30.09 in - Calm Calm - N/A   Clear
2:00 AM 41.0 °F 33.8 °F 76% 30.09 in - Calm Calm - N/A   Clear
3:00 AM 41.0 °F 33.8 °F 76% 30.09 in - Calm Calm - N/A   Clear
4:00 AM 41.0 °F 33.8 °F 76% 30.09 in - Calm Calm - N/A   Clear
5:00 AM 39.2 °F 35.6 °F 87% 30.09 in - Calm Calm - N/A   Clear
6:00 AM 35.6 °F 32.0 °F 87% 30.09 in - Calm Calm - N/A   Clear
7:00 AM 37.4 °F 33.8 °F 87% 30.12 in - Calm Calm - N/A   Clear
8:00 AM 41.0 °F 35.6 °F 81% 30.12 in - Calm Calm - N/A   Clear
9:00 AM 57.2 °F 26.6 °F 31% 30.12 in - East 9.2 mph - N/A   Clear
10:00 AM 59.0 °F 24.8 °F 27% 30.12 in - East 6.9 mph - N/A   Clear
11:00 AM 62.6 °F 24.8 °F 24% 30.12 in - East 4.6 mph - N/A   Clear
12:00 PM 64.4 °F 23.0 °F 21% 30.06 in - East 4.6 mph - N/A   Clear
1:00 PM 66.2 °F 24.8 °F 21% - - East 5.8 mph - N/A   Clear
2:00 PM 68.0 °F 24.8 °F 20% 30.04 in - East 3.5 mph - N/A   Clear
3:00 PM 68.0 °F 24.8 °F 20% 30.01 in - East 2.3 mph - N/A   Clear
4:00 PM 68.0 °F 24.8 °F 20% 30.04 in - Calm Calm - N/A   Clear
5:00 PM 68.0 °F 24.8 °F 20% 30.04 in - Calm Calm - N/A   Clear
7:00 PM 60.8 °F 30.2 °F 31% 30.04 in - Calm Calm - N/A   Clear
8:00 PM 60.8 °F 30.2 °F 31% 30.04 in - Calm Calm - N/A   Clear
9:00 PM 59.0 °F 28.4 °F 31% 30.04 in - Calm Calm - N/A   Clear
10:00 PM 57.2 °F 28.4 °F 33% 30.04 in - Calm Calm - N/A   Clear
11:00 PM 55.4 °F 28.4 °F 36% 30.01 in - Calm Calm - N/A   Clear